Regional Weather Roundup
Issued by NWS

Home | Current Version | Previous Version | Text Only | Print | Product List | Glossary Off
Versions: 1 2 3 4 5 6 7 8 9 10 11 12 13 14 15 16 17 18 19 20 21 22 23 24 25 26 27 28 29 30 31 32 33 34 35 36 37 38 39 40 41 42 43 44 45 46 47 48 49 50

158
ASUS43 KMKX 232321
RWRWI

WISCONSIN REGIONAL WEATHER ROUNDUP
NATIONAL WEATHER SERVICE MILWAUKEE/SULLIVAN WI
600 PM CDT TUE AUG 23 2016

NOTE: "FAIR" INDICATES FEW OR NO CLOUDS BELOW 12,000 FEET WITH NO
SIGNIFICANT WEATHER AND/OR OBSTRUCTIONS TO VISIBILITY.

WIZ001-002-006>008-014>016-023>028-240000-
NORTHWEST WISCONSIN

CITY           SKY/WX    TMP DP  RH WIND       PRES   REMARKS
SUPERIOR ARPT  MOSUNNY   83  69  61 S15G21    29.86R HX  87
ASHLAND        PTSUNNY   81  66  60 S13       29.92R HX  83
HAYWARD        PTSUNNY   78  65  63 S12       29.95S HX  80
SIREN          CLOUDY    78  66  66 S13       29.93R HX  80
CUMBERLAND     CLOUDY    73  64  73 S9        29.96R
RICE LAKE      CLOUDY    76  65  67 S12       29.98R
CHETEK         NOT AVBL
LADYSMITH      MOSUNNY   77  64  64 S9G17     30.00S
EAU CLAIRE     PTSUNNY   79  65  62 S10G20    29.97S HX  81
MENOMONIE      CLOUDY    78  65  65 S7        29.97R HX  80
NEW RICHMOND   CLOUDY    77  64  63 S10       29.95R
OSCEOLA        CLOUDY    78  65  64 S13G18    29.96R HX  80
$$

WIZ003>005-009-010-017-018-240000-
NORTH CENTRAL WISCONSIN

CITY           SKY/WX    TMP DP  RH WIND       PRES   REMARKS
MANITOWISH WTR NOT AVBL
ARBOR VITAE    MOSUNNY   77  64  65 S14G20    30.02R
WOODRUFF       MOSUNNY   77  64  65 S14G20    30.02R
RHINELANDER    MOSUNNY   76  64  66 S9G18     30.04S
EAGLE RIVER    SUNNY     76  59  56 SW8       30.02S
LAND O LAKES   SUNNY     76  61  59 S9        30.03R
PHILLIPS       CLOUDY    75  65  71 S8        30.00R
TOMAHAWK       SUNNY     76  62  62 S3        30.03S
MEDFORD        MOSUNNY   74  64  71 S8        30.02S
MERRILL        SUNNY     76  64  65 S9        30.04S
$$

WIZ029-030-035-036-043>047-240000-
CENTRAL WISCONSIN

CITY           SKY/WX    TMP DP  RH WIND       PRES   REMARKS
WAUSAU         MOSUNNY   77  62  59 S12       30.02S
MOSINEE        MOSUNNY   75  64  69 S9        30.05S
MARSHFIELD     PTSUNNY   77  62  59 S13       30.03R
STEVENS POINT  PTSUNNY   77  61  59 S13       30.05R
WAUPACA        MOSUNNY   80  62  54 S9        30.05S HX  81
WAUTOMA        MOSUNNY   79  63  57 SW10      30.05F HX  80
WISC RAPIDS    MOSUNNY   79  62  56 S10G20    30.05S HX  80
CAMP DOUGLAS   PTSUNNY   79  64  61 S9        30.03S HX  81
$$

WIZ011>013-019>022-031-037>040-048>050-240000-
NORTHEAST WISCONSIN

CITY           SKY/WX    TMP DP  RH WIND       PRES   REMARKS
ANTIGO         MOSUNNY   76  62  62 S13       30.06S
SHAWANO        MOSUNNY   80  61  52 S6        30.05S HX  81
OCONTO         NOT AVBL
STURGEON BAY   MOSUNNY   74  64  71 S17G23    30.07F
GREEN BAY      CLOUDY    78  63  59 S9        30.06S HX  80
MANITOWOC      MOSUNNY   72  62  71 S21G28    30.09S
APPLETON       PTSUNNY   79  57  47 S13       30.05F HX  80
CLINTONVILLE   MOSUNNY   77  61  57 S8        30.05S
OSHKOSH        SUNNY     78  62  57 S17G23    30.06F HX  80
$$

WIZ032>034-041-042-053>061-240000-
SOUTHWEST WISCONSIN

CITY           SKY/WX    TMP DP  RH WIND       PRES   REMARKS
LA CROSSE      PTSUNNY   81  69  67 S16       29.98F HX  84
SPARTA         MOSUNNY   77  64  63 S9        30.02S
VIROQUA        PTSUNNY   75  63  66 SE8       30.02F
BOSCOBEL       MOSUNNY   79  64  60 S9        30.03S HX  81
PRAIRIE DU CHI CLOUDY    78  63  58 SE8       30.01S HX  80
PLATTEVILLE    PTSUNNY   76  67  74 S10       30.07S
$$

WIZ056-057-062-063-064-067-068-240000-
SOUTH CENTRAL WISCONSIN

CITY           SKY/WX    TMP DP  RH WIND       PRES   REMARKS
REEDSBURG      NOT AVBL
BARABOO/DELLS  MOSUNNY   77  60  55 S15       30.06F
LONE ROCK      MOSUNNY   79  64  60 S14       30.04F HX  81
MINERAL POINT  PTSUNNY   77  64  65 S10G23    30.07S
MADISON        PTSUNNY   78  60  53 S17       30.07F
MIDDLETON      MOSUNNY   80  61  53 S10       30.08S HX  81
WATERTOWN      SUNNY     77  62  60 S12       30.09S
MONROE         MOSUNNY   75  63  64 S14       30.08F
JANESVILLE     PTSUNNY   81  61  50 S16G23    30.09F HX  81
$$

WIZ051-052-058>065-066-070>072-240000-
SOUTHEAST WISCONSIN

CITY           SKY/WX    TMP DP  RH WIND       PRES   REMARKS
MILWAUKEE      PTSUNNY   82  58  43 S17       30.10F HX  82
WAUKESHA       SUNNY     77  57  50 S8        30.12F
MILWAUKEE/TIMM SUNNY     79  55  44 S13G22    30.11S
RACINE         SUNNY     77  62  59 S12G22    30.13F
BURLINGTON     SUNNY     77  58  50 S9G18     30.11F
KENOSHA        SUNNY     80  59  48 SW13      30.12F HX  81
FOND DU LAC    SUNNY     78  62  57 S16       30.08S HX  80
SHEBOYGAN      SUNNY     76  62  62 S13       30.09F
WEST BEND      SUNNY     77  59  53 S12       30.10S
JUNEAU         SUNNY     77  61  58 S14G24    30.10S
$$

LSZ147-162-240000-
LAKE SUPERIOR

STATION/POSITION TIME  TEMP    WIND        PRES    WAVE
                       AIR SEA DIR/SP/G            HT/PER
                 (UTC) (F)     (DEG/KT/KT) (MB)    (FT/S)
W MID LAKE BUOY  2250   74 67  200/ 10/ 12 1011.6R   1
DEVILS ISLAND    2300   81     180/  9/ 13 1011.6R
SAXON HARBOR     2240   82     200/  6/ 10 1012.9R
$$

LMZ867-665-643>646-240000-
LAKE MICHIGAN

STATION/POSITION TIME  TEMP    WIND        PRES    WAVE
                       AIR SEA DIR/SP/G            HT/PER
                 (UTC) (F)     (DEG/KT/KT) (MB)    (FT/S)
CHAMBERS ISLAND  2200   77     170/  5/ 15 1017.3F
S GREEN BAY BUOY 2300   77 74  180/ 12/ 14 1017.2S
N MID LAKE BUOY  2250   72 71  200/ 19/ 23 1017.6S   6/ 6
NORTHPORT PIER   2200   73     160/ 10/ 17 1017.9R
SISTER BAY       2137   76     180/ 19/ 23   N/A
KEWAUNEE LAKESHO 2200   67                 1018.6R
PORT WASHINGTON  2240   70     190/  8/ 11 1019.6F
ATWATER BUOY     2300   68 54  160/ 16/ 19   N/A
MILWAUKEE LAKESH 2310   68     150/ 18/ 20   N/A
S MID LAKE BUOY  2250   75 75  150/ 16/ 17 1019.8F   3/ 5
KENOSHA   LAKESH 2300   71     180/ 13/ 16 1019.3S
$$

TC  - TEMPERATURE IN CELSIUS
VSB - VISIBILITY IN STATUTE MILES
WCI - WIND CHILL INDEX
HX  - HEAT INDEX





USA.gov is the U.S. government's official web portal to all federal, state and local government web resources and services.